COSMOS 1275 DEB, 12711

Orbit data source: Space-Track

COSMOS 1275 DEB, 12711 is space debris in LEO originally from a launch on Thu, 04 Jun 1981 UTC launched from the Plesetsk Missile And Space Complex (PKMTR). Debris objects in space refer to the collection of defunct objects orbiting the Earth. Examples of debris include non-operational satellites, rocket bodies, and fragments generated from explosions, collisions, or faulty payload assembly.

Loading next visibility...
Identifier
12711, 1981-053BF
Orbit
LEO
Country
Flag of CISCIS
Related business
Manufacturer
Unknown
Mission
Spacecraft
Bus & Motor
Unknown
Mass
Unknown
Launch date (UTC)
1981-06-04 (45 years ago)
Launch vehicle
Unknown
Launch site
Plesetsk Missile And Space Complex (PKMTR)
Object type
Payload
Rocket body
Debris
Shape & HBR
Unknown shape, 0.1 m
Radar Cross Section
Small (<0.1 m²)

Expand to show TLE details & history
Last TLE update: 19 hours ago

TLE from 19 hours ago
0 COSMOS 1275 DEB
1 12711U 81053BF  26034.26745463  .00000663  00000-0  66746-3 0  9998
2 12711  82.9636 118.1308 0065091 152.2479 263.9886 13.75037496224859
Epoch: 2026-02-03T06:25Z
TLE epoch observation values (Epoch: 2026-02-03T06:25:08.080Z)
Latitude
54.96953°
Longitude
-101.51555°
Altitude
995.961 km
Speed
7.356 km/s
True Right ascension
08h 32m 52s
True Declination
54° 48' 47"
Sunlit
Object was in full shadow at epoch
Visualization orbit readout
Latitude
Unknown
Longitude
Unknown
Altitude
Unknown
Speed
Unknown
Apparent Right ascension
Unknown
Apparent Declination
Unknown
Sunlit
N/A
Visualization observer readout
Local Sidereal Time
03:18:55
Azimuth
Unknown
Elevation
Unknown
Doppler factor
Unknown
Orbital elements
Apogee altitude
1,026.575 km
Perigee altitude
930.802 km
Semi-major axis
7,356.826 km
Eccentricity
0.00651
Inclination
82.9636°
RAAN
118.1308°
Arg. of periapsis
152.2479°
True anomaly
263.24747°
Mean anomaly
263.9886°
Eccentric anomaly
263.61797°
Mean motion
3.4396 °/min
Orbital period
104.66 mins
BSTAR
0.00066746
Loading maneuver chart data...
Computing Atmospheric mass density...
Loading historical data...
Loading historical data...
Loading historical data...
Loading historical data...
Loading historical data...
Loading historical data...
Loading historical data...

Documentation

Showing up to 5 results
|